Regional Weather Roundup
Issued by NWS

Home | Current Version | Previous Version | Text Only | Print | Product List | Glossary Off
Versions: 1 2 3 4 5 6 7 8 9 10 11 12 13 14 15 16 17 18 19 20 21 22 23 24 25 26 27 28 29 30 31 32 33 34 35 36 37 38 39 40 41 42 43 44 45 46 47 48 49 50

000
ASUS43 KTOP 310108
RWRKS

WEATHER ROUNDUP FOR KANSAS
NATIONAL WEATHER SERVICE GOODLAND KS
800 PM CDT THU OCT 30 2014

NOTE:  "FAIR" INDICATES FEW OR NO CLOUDS BELOW 12,000 FEET WITH NO
SIGNIFICANT WEATHER AND/OR OBSTRUCTIONS TO VISIBILITY.

KSZ001>006-013>018-027>032-041>047-310200-
NORTHWEST KANSAS

CITY           SKY/WX    TMP DP  RH WIND       PRES   REMARKS
GOODLAND       CLEAR     47  27  45 N5        30.34R
HAYS           CLEAR     52  30  43 N8        30.27R
HILL CITY      CLEAR     50  30  46 N9        30.30R
RUSSELL        CLEAR     53  33  46 N10       30.25R
$$

KSZ061>065-074>080-084>089-310200-
SOUTHWEST KANSAS

CITY           SKY/WX    TMP DP  RH WIND       PRES   REMARKS
DODGE CITY     CLEAR     52  29  41 N8        30.28R
ELKHART          N/A     55  27  34 NE7         N/A
GARDEN CITY    CLEAR     47  29  49 N9        30.29R
GREAT BEND     CLEAR     54  32  43 N10       30.25R
LIBERAL        CLEAR     54  27  35 N7        30.31R
PRATT          CLEAR     50  32  50 N9        30.25R
$$

KSZ066>073-081>083-090>101-310200-
SOUTHEAST KANSAS

CITY           SKY/WX    TMP DP  RH WIND       PRES   REMARKS
CHANUTE        CLEAR     58  38  47 NW7       30.11R
COFFEYVILLE    CLEAR     60  38  43 NW6       30.11R
HUTCHINSON     CLEAR     59  33  37 N12       30.21R
MEDICINE LODGE   N/A     55  33  43 N7        30.22R
NEWTON         CLEAR     57  32  38 N12       30.20R
PARSONS        CLEAR     55  38  52 N5        30.12R
WICHITA INTL   CLEAR     63  34  33 N13       30.18R
WICHITA JABRA  CLEAR     60  34  37 N14       30.17R
WICHITA MCCONL CLEAR     62  32  31 N16       30.18R
WINFIELD       CLEAR     54  37  52 NW8       30.17R
$$

KSZ007>012-019>026-033>040-048>060-102>105-310200-
NORTHEAST KANSAS

CITY           SKY/WX    TMP DP  RH WIND       PRES   REMARKS
CONCORDIA      CLEAR     56  37  49 N14       30.24R
EMPORIA        CLEAR     55  38  52 N8        30.14R
LAWRENCE       CLEAR     56  40  55 N14       30.13R
MANHATTAN      CLEAR     59  39  47 N8G16     30.19R
MARYSVILLE     FAIR      54  37  54 N16       30.21R
OLATHE IND     CLEAR     56  40  55 NW12      30.12R
OLATHE EXE     CLEAR     59  40  49 N10       30.10R
SALINA         CLEAR     57  34  41 N10       30.22R
TOPEKA BILLARD CLEAR     57  41  55 N12       30.15R
TOPEKA FORBES  CLEAR     56  40  55 N9        30.14R
$$



USA.gov is the U.S. government's official web portal to all federal, state and local government web resources and services.